Theta_e
346 344 342 342 342 342 342 340 338 335 334 336 335 335 339 342 342 343 345 341 341 345 345 344 342 343 343 341 337 338 337 338 338 337 337 340 340 340 340 339 339 339 333
342 344 342 342 342 343 342 340 338 337 334 333 334 334 335 340 343 344 342 341 341 346 344 342 341 340 342 340 337 334 334 337 338 338 337 340 340 339 338 337 338 338 335
341 342 342 342 342 343 342 340 339 337 335 333 333 334 333 335 338 339 340 340 341 342 341 341 341 341 340 340 336 332 331 337 338 337 337 338 338 338 338 337 337 337 334
340 342 342 342 342 342 342 340 339 338 336 334 332 334 333 332 332 334 336 338 339 338 339 339 339 339 338 336 332 332 334 337 338 338 337 336 337 338 338 337 336 337 333
341 342 342 341 341 341 341 340 339 338 337 334 332 333 333 331 331 332 334 336 337 337 337 338 337 336 335 334 336 336 334 337 338 338 336 335 335 336 334 336 335 336 335
344 342 342 341 340 340 341 340 339 338 337 336 333 333 333 332 331 332 333 335 337 338 337 335 339 340 337 337 337 335 335 338 338 337 338 336 334 332 333 336 335 336 336
348 344 342 342 340 339 340 340 339 338 337 337 334 333 334 333 333 333 334 336 338 340 340 339 339 338 337 336 337 336 336 336 338 337 337 336 336 334 334 335 336 335 335
348 347 343 342 340 340 340 340 338 337 337 338 337 334 334 334 334 333 334 336 338 342 342 338 336 336 336 337 337 336 336 337 337 338 336 336 336 333 332 333 334 335 335
347 349 346 342 341 340 340 339 338 337 338 339 339 336 335 334 335 334 334 335 337 342 342 340 336 336 336 337 337 337 337 337 337 338 335 333 336 332 334 335 335 334 335
346 349 348 346 342 340 340 339 338 338 339 340 341 340 337 335 336 336 335 334 336 339 341 340 338 337 336 336 337 337 336 336 335 334 336 335 334 333 335 335 335 334 334
348 348 348 346 343 341 340 339 338 338 339 341 342 341 339 336 336 337 337 335 336 337 339 341 339 337 336 335 336 336 336 336 335 333 333 335 331 335 335 334 334 334 334
349 348 348 347 346 344 341 340 340 340 341 341 342 341 341 338 336 338 338 337 336 337 338 340 340 338 337 336 336 336 335 335 336 335 332 332 334 332 332 333 333 334 334
346 348 348 348 347 346 344 341 340 341 342 342 342 342 342 342 340 339 340 340 338 338 339 341 341 339 338 337 336 336 335 334 334 334 333 330 334 334 334 333 332 333 334
316 324 317 338 349 348 345 342 340 340 341 342 343 343 343 344 343 342 341 341 341 339 339 341 341 339 338 337 336 336 335 334 333 333 333 333 333 335 334 333 333 333 334
326 327 326 336 349 348 346 343 340 339 339 339 340 341 342 344 345 342 342 341 341 341 339 340 340 340 339 338 337 336 335 335 337 335 333 335 334 334 333 332 330 331 333
331 337 342 344 347 347 345 344 342 339 338 339 339 340 341 340 338 339 339 340 340 340 340 339 339 339 339 338 337 336 336 335 337 337 334 334 335 334 333 330 331 331 332
326 326 326 327 331 337 338 337 339 339 340 340 339 339 339 338 339 339 339 338 338 340 340 339 340 340 340 339 338 337 336 335 337 337 335 334 334 335 334 332 332 332 331
322 321 321 321 322 323 323 323 322 324 326 326 329 331 332 335 339 340 340 339 339 338 340 341 341 341 340 340 338 337 337 336 337 337 336 336 336 336 334 333 332 331 330
316 315 315 316 317 317 318 318 318 318 318 319 319 321 324 329 331 334 335 328 336 337 337 339 341 341 339 339 339 338 338 337 337 338 337 336 336 336 335 334 331 330 330
311 311 311 311 312 313 313 314 314 314 312 313 315 317 316 321 328 331 329 328 326 327 334 336 338 339 339 338 337 337 338 338 337 338 337 337 336 335 335 334 333 332 330
307 307 307 307 306 308 309 309 309 309 309 309 310 310 310 312 315 316 325 327 327 328 328 334 336 338 338 337 336 335 335 335 336 337 337 336 336 335 335 333 333 333 330
302 302 301 301 301 301 302 302 304 304 306 306 307 306 307 307 307 308 311 313 319 327 327 328 335 336 336 336 335 331 333 333 335 335 336 336 335 335 334 333 333 332 331
299 298 298 297 297 296 298 299 301 303 303 303 303 302 302 303 304 305 306 308 310 312 316 325 334 334 334 334 334 331 329 332 327 333 335 335 335 335 334 334 333 333 332
297 296 295 295 294 294 295 295 296 296 296 298 298 299 300 301 302 302 304 305 306 308 311 314 320 333 331 328 331 331 328 327 327 326 329 332 333 334 334 333 333 333 332
294 294 294 293 293 292 292 293 293 293 294 295 296 297 298 300 299 300 301 302 303 304 307 311 315 319 332 328 330 330 328 327 326 324 327 327 330 331 331 332 333 332 332
294 293 292 292 291 290 291 291 291 291 292 292 293 294 295 296 297 298 298 298 299 301 303 306 311 317 326 332 332 330 328 327 326 325 325 323 328 330 331 330 331 332 331
Wind_Speed
13 24 26 25 25 25 24 24 24 23 22 20 20 21 22 24 23 23 23 22 22 21 20 20 18 15 10 8 8 7 6 4 5 6 8 12 13 16 16 17 18 18 19
11 31 28 25 24 23 23 23 23 23 22 21 20 20 22 24 26 23 20 20 20 20 20 20 18 15 12 8 7 6 5 5 6 8 10 12 13 14 16 16 16 18 19
22 29 27 25 24 22 21 21 21 22 21 21 20 20 21 22 23 22 21 21 20 19 19 18 17 15 12 10 7 5 5 6 7 9 9 12 13 13 13 14 15 16 18
23 26 26 24 23 22 21 20 20 20 21 21 21 20 20 21 21 21 21 20 19 18 18 17 15 14 12 10 8 6 6 8 9 8 11 13 13 10 10 10 10 14 17
20 23 25 25 24 22 20 18 18 18 20 20 21 20 20 20 21 21 20 19 18 17 16 15 13 12 11 10 8 8 9 9 9 11 12 14 15 14 10 13 14 15 16
15 20 23 24 23 21 20 19 18 18 19 20 21 21 20 20 20 20 19 19 18 16 16 16 14 13 13 11 10 10 11 11 10 12 11 12 14 14 13 14 15 16 16
14 18 19 20 21 21 20 19 19 19 19 20 21 21 20 20 21 20 20 20 19 18 17 15 15 14 13 12 11 11 11 10 10 13 14 11 13 15 14 13 12 14 17
13 17 19 20 20 20 20 19 19 19 20 20 21 21 22 21 21 21 21 20 18 17 16 15 14 14 12 12 11 11 11 10 11 12 13 12 14 14 14 15 15 16 17
11 16 18 20 21 21 20 19 19 19 20 21 22 22 23 23 22 22 22 21 20 18 17 15 14 13 13 12 11 11 11 11 12 13 12 12 17 15 16 16 17 17 18
12 15 17 18 20 21 21 20 20 20 20 22 24 25 25 25 24 22 22 22 22 21 18 17 16 14 14 13 12 12 13 13 12 13 13 13 15 18 17 17 18 19 19
10 14 17 18 18 20 21 21 21 21 21 22 23 24 25 26 25 23 23 23 23 22 21 19 17 15 14 14 14 14 15 15 14 14 15 14 11 17 16 16 18 17 19
13 14 16 18 19 20 21 22 22 21 22 24 24 22 22 23 24 24 24 23 24 24 22 21 19 17 16 17 16 16 17 17 17 16 17 17 15 19 15 14 15 18 20
14 14 15 19 21 21 21 22 23 23 23 23 23 23 23 23 24 24 24 24 25 25 25 23 21 20 20 20 19 19 19 18 19 18 18 17 18 19 18 16 15 17 20
7 12 14 20 23 21 20 20 22 24 24 24 24 23 25 24 24 26 26 26 26 27 28 26 25 24 24 22 21 21 21 20 21 20 19 19 18 20 18 16 16 18 22
4 5 9 17 22 21 18 18 19 24 25 24 23 24 25 25 26 27 28 28 27 27 29 30 29 28 27 26 24 24 23 22 21 21 22 19 18 20 18 18 19 20 21
10 8 6 9 13 15 13 14 17 22 22 22 22 24 25 26 28 28 28 29 29 29 30 31 32 32 31 30 29 27 26 25 25 23 23 23 21 20 20 19 18 20 21
22 23 20 19 14 10 7 5 8 11 6 5 15 22 21 23 28 28 30 30 30 30 30 30 31 32 32 33 32 30 29 28 27 26 23 24 24 21 19 19 20 20 20
24 22 19 17 17 14 11 9 8 8 5 5 4 10 13 17 23 25 23 25 27 30 31 31 33 32 32 34 34 34 31 29 29 29 27 27 26 24 22 21 21 21 21
22 21 20 16 15 12 8 7 7 8 9 10 10 9 6 13 24 29 33 27 16 23 35 36 33 31 26 28 33 34 33 32 33 32 32 31 28 26 24 23 23 23 24
24 23 21 19 16 12 9 6 4 6 11 9 8 8 10 10 8 18 35 42 36 36 32 34 34 32 32 33 28 30 34 34 34 35 36 34 30 28 26 25 24 24 25
27 25 23 20 19 16 16 14 10 14 10 12 10 10 10 10 12 13 7 16 22 46 35 33 33 31 28 27 17 18 25 30 35 36 36 35 32 30 28 26 26 25 25
27 29 27 24 22 21 17 14 7 11 6 11 9 14 13 16 15 14 12 11 14 29 36 45 36 25 21 22 14 1 5 11 27 31 34 36 34 31 31 29 28 28 27
30 29 28 26 22 24 19 17 15 9 14 11 22 21 21 20 18 17 13 13 15 14 22 22 19 29 16 16 25 11 2 4 1 11 34 36 36 34 34 32 31 31 30
22 27 29 27 28 25 25 23 22 16 11 15 24 27 26 23 20 17 17 17 18 19 18 18 20 25 30 24 20 24 37 13 2 5 15 28 32 36 37 36 34 34 33
23 24 26 27 29 30 29 27 23 20 17 20 24 27 27 26 23 22 18 18 19 20 20 19 21 23 25 33 31 23 29 23 26 9 10 8 18 29 34 36 36 37 35
20 25 25 29 28 32 30 27 23 22 24 22 23 22 23 24 28 25 23 24 23 22 21 21 20 23 20 29 30 32 25 21 20 13 10 12 13 15 30 31 35 38 36
Wind_Direction
204 187 179 177 174 170 164 159 157 156 154 150 141 136 137 146 148 150 153 154 153 149 150 151 155 158 156 138 119 116 117 116 119 118 122 132 133 139 140 141 138 141 141
182 175 179 179 179 175 168 164 160 159 159 157 152 145 143 145 150 153 155 155 154 153 156 160 164 166 169 162 145 135 126 120 120 118 124 133 138 139 142 143 146 144 143
174 174 178 180 182 180 176 170 166 163 164 164 159 154 151 150 153 155 157 158 158 160 162 165 169 170 172 175 172 161 144 136 122 119 135 144 145 144 151 153 155 152 151
176 178 181 183 185 185 183 179 173 169 169 169 166 163 159 156 155 155 155 157 159 162 163 167 169 174 175 179 184 172 163 153 130 141 149 148 150 145 147 156 166 158 161
180 185 186 187 190 188 188 188 183 178 175 174 173 170 166 163 160 159 158 159 160 162 163 163 166 168 168 173 177 175 170 159 149 145 153 160 167 173 168 168 178 174 172
186 193 193 193 193 193 190 192 192 188 182 180 179 177 173 170 168 166 165 166 166 166 169 171 172 177 174 176 177 177 175 167 166 173 168 184 188 195 187 184 184 178 182
192 197 199 203 202 201 199 198 198 196 191 187 185 184 182 179 175 174 174 173 173 173 174 178 182 181 180 183 180 180 187 184 184 181 186 190 203 196 179 182 189 195 185
191 195 201 205 212 209 207 205 204 202 198 194 192 191 189 189 186 184 182 181 182 179 180 182 183 186 188 187 183 184 195 197 191 192 195 208 197 195 191 189 193 197 194
198 198 201 208 214 215 215 213 211 211 206 201 198 198 198 196 195 193 192 189 187 189 190 193 193 193 191 192 188 189 201 205 194 196 200 202 192 207 207 201 199 199 199
198 203 205 215 215 212 214 215 216 216 213 209 205 203 203 200 200 201 200 198 195 195 198 199 202 201 200 199 196 198 206 213 206 206 215 213 236 220 206 205 203 203 202
206 209 210 215 219 217 218 220 219 218 216 216 214 210 207 207 203 204 206 205 203 205 204 207 208 210 209 210 202 203 209 222 219 213 220 225 218 201 207 210 207 211 210
223 219 219 220 224 225 222 222 222 220 217 213 213 215 217 216 213 212 212 211 211 211 212 213 216 214 213 214 211 207 214 219 231 226 224 220 218 218 222 213 220 217 216
236 236 234 230 224 224 231 227 223 221 221 218 216 217 220 223 222 222 223 220 216 213 213 215 216 220 220 217 216 216 218 223 229 236 234 225 223 222 219 219 228 223 222
211 224 250 245 228 225 230 234 230 225 225 225 224 221 222 225 228 226 228 229 228 221 218 217 219 222 225 224 223 223 223 225 231 233 238 228 221 217 218 225 231 229 223
170 224 231 230 224 225 229 232 235 232 231 234 237 233 231 229 233 233 233 233 234 233 227 223 223 226 229 229 226 226 227 226 226 229 229 227 219 218 224 230 240 232 226
128 123 140 190 209 217 218 236 241 234 232 245 246 246 245 242 244 241 241 239 239 239 237 234 230 230 233 234 230 227 229 230 228 230 227 223 225 231 247 241 228 232 228
117 116 113 110 121 147 153 199 242 249 230 210 241 257 262 258 256 255 251 246 245 245 242 239 239 239 239 239 237 232 230 231 227 229 226 221 224 234 241 243 229 228 231
122 114 112 109 107 102 101 94 82 76 60 29 335 290 284 271 260 261 264 264 266 261 255 245 240 237 238 241 241 238 232 227 224 225 226 226 228 236 241 241 234 227 231
103 98 89 83 80 82 84 81 70 65 55 62 52 46 1 287 276 266 252 265 276 289 269 257 246 240 232 236 239 239 235 229 226 227 227 229 231 235 236 236 235 228 227
81 78 70 64 59 51 48 48 49 33 27 25 19 17 15 19 318 271 253 262 265 273 280 263 254 247 238 241 233 237 234 234 231 226 226 227 230 236 233 231 231 233 230
64 63 57 49 42 41 32 20 8 1 359 3 356 1 347 335 329 342 312 261 256 239 257 267 259 246 234 244 220 235 238 235 232 228 227 229 231 232 231 228 232 232 229
43 45 40 36 31 32 33 25 10 340 329 350 345 342 338 337 331 325 314 304 280 256 281 264 253 243 251 242 220 101 256 238 238 236 235 234 234 232 230 229 231 234 227
39 32 28 21 20 18 22 18 13 15 351 348 334 337 333 332 328 322 316 298 285 276 272 259 271 255 247 266 243 206 273 242 294 239 237 236 235 233 232 230 231 233 232
32 30 24 16 6 7 10 14 18 12 353 330 330 325 326 329 327 324 315 310 303 299 295 288 271 267 243 240 261 208 217 215 96 308 290 238 234 236 236 232 231 233 235
31 26 16 14 3 3 2 7 4 351 344 337 329 328 328 326 324 323 320 316 308 302 294 288 281 268 254 236 230 209 213 205 225 207 265 295 242 236 235 233 234 234 235
23 19 17 11 2 357 356 358 353 349 346 339 331 329 329 327 323 319 318 314 309 303 294 286 277 268 264 239 228 215 205 197 200 204 219 248 244 239 231 233 234 236 236